Flag for Saudi Arabia Weather past 2 weeks in Turaif, Saudi Arabia

Now
59 °F

Sunny.


Feels Like: 57 °F
Forecast: 50 / 67 °F
Wind: 9 mph from West

Location: Turaif

Current Time: Mar 31, 2015 at 11:51:03 AM

Latest Report: Mar 31, 2015 at 11:00 AM


Visibility: 10 mi

Pressure: 30.04 "Hg

Humidity: 59%

Dew point: 45 °F

Location of TuraifLocation

Historic Weather in Turaif — Graph

°F

Turaif temperature yesterday

Maximum temperature yesterday: 70 °F (at 3:00 PM)
Minimum temperature yesterday: 48 °F (at 6:00 AM)
Average temperature yesterday: 59 °F

Past Weeks' High & Low Weather Summary

 TemperatureHumidityPressure
High88 °F (Mar 28, 3:00 PM)100% (Mar 20, 6:00 AM)30.18 "Hg (Mar 20, 6:00 AM)
Low37 °F (Mar 23, 5:00 AM)16% (Mar 17, 6:00 PM)29.77 "Hg (Mar 29, 4:00 PM)
Average58 °F54%29.99 "Hg
* Reported Mar 16 10:00 AM — Mar 31 10:00 AM, Turaif, Weather by CustomWeather, © 2015

Note: Actual official high and low records may vary slightly from our data, if they occured in-between our weather recording intervals... More about our weather records

Advertising

Turaif weather history for previous 24 hours

 ConditionsComfort  
Time TempWeatherWind HumidityBarometerVisibility
10:00 AM
Tue, Mar 31
57 °FSunny.9 mph77%30.07 "Hg10 mi
8:00 AM50 °FSunny.7 mph88%30.01 "Hg10 mi
7:00 AM46 °FClear.9 mph100%30.01 "Hg10 mi
6:00 AM46 °FClear.9 mph93%29.98 "Hg10 mi
5:00 AM48 °FClear.9 mph87%29.98 "Hg10 mi
4:00 AM48 °FClear.9 mph87%29.98 "Hg10 mi
3:00 AM50 °FClear.9 mph82%29.98 "Hg10 mi
2:00 AM52 °FClear.12 mph77%29.98 "Hg10 mi
1:00 AM54 °FClear.9 mph72%29.98 "Hg10 mi
12:00 AM55 °FClear.14 mph72%29.98 "Hg10 mi
11:00 PM
Mon, Mar 30
55 °FClear.12 mph63%29.98 "Hg10 mi
10:00 PM57 °FClear.12 mph59%29.98 "Hg10 mi
9:00 PM59 °FClear.14 mph55%29.95 "Hg10 mi
8:00 PM61 °FClear.14 mph52%29.95 "Hg10 mi
7:00 PM64 °FSunny.18 mph43%29.92 "Hg6 mi
6:00 PM68 °FSunny.18 mph38%29.92 "Hg6 mi
5:00 PM68 °FSunny.16 mph38%29.92 "Hg6 mi
4:00 PM70 °FSunny.16 mph35%29.89 "Hg5 mi
3:00 PM70 °FSunny.18 mph35%29.89 "Hg4 mi
1:00 PM66 °FSunny.20 mph37%29.95 "Hg4 mi
12:00 PM64 °FSunny.21 mph46%29.95 "Hg5 mi
11:00 AM61 °FSunny.21 mph48%29.98 "Hg5 mi
Weather by CustomWeather, © 2015

See weather overviewHow to use our weather pages